Regional Weather Roundup
Issued by NWS

Home | Current Version | Previous Version | Text Only | Print | Product List | Glossary On
Versions: 1 2 3 4 5 6 7 8 9 10 11 12 13 14 15 16 17 18 19 20 21 22 23 24 25 26 27 28 29 30 31 32 33 34 35 36 37 38 39 40 41 42 43 44 45 46 47 48
000
ASUS42 KTBW 031316
RWRFL
FLORIDA REGIONAL WEATHER ROUNDUP
NATIONAL WEATHER SERVICE TAMPA BAY RUSKIN FL
900 AM EDT THU SEP 03 2015

NOTE: "FAIR" INDICATES FEW OR NO CLOUDS BELOW 12,000 FEET WITH NO
SIGNIFICANT WEATHER AND/OR OBSTRUCTIONS TO VISIBILITY.


FLZ001>010-012>015-112-114-115-031400-
PANHANDLE FLORIDA

CITY           SKY/WX    TMP DP  RH WIND       PRES   REMARKS
PENSACOLA      CLOUDY    80  73  79 NW8       30.00R
MILTON NAS     CLOUDY    78  73  84 NW5       30.01
CRESTVIEW      CLOUDY    79  73  82 NW6       30.01R
DUKE FIELD     FAIR      79  73  81 NW6       29.99S
VALPARAISO     PTSUNNY   81  73  76 NW6       29.99R
MARY ESTHER    PTSUNNY   80  74  81 N7        29.98S
PANAMA CITY    FAIR      80  74  81 NW6       29.98S
TYNDALL AFB    PTSUNNY   83  78  87 NW5       29.99R
APALACHICOLA   MOSUNNY   83  78  85 NW3       29.99R

STATION/POSITION SKY/WX   TEMP    WIND        PRES    WAVE   SWELL
                          AIR SEA DIR/SP/G            HT/PER HT/PER
                          (F)     (DEG/KT/KT) (MB)    (FT/S) (FT/S)
30.1N   87.6W              83 85  350/  6/  8 1015.1R   1
29.2N   88.2W              78 85  260/ 14/ 17 1016.0R   1/ 6
28.8N   86.0W              84 86  300/  6/  8 1016.2R   1
PANAMA CITY BEAC           82 85  310/  9/ 11 1015.4R
CAPE SAN BLAS    NOT AVBL
TOWER C                    84     330/ 10/ 12 1015.5R
28.5N   84.5W              85 85  320/  4/  6 1015.9R   1/ 7

$$
FLZ011-016>038-118-127-128-134-139-239-031400-
NORTH FLORIDA

CITY           SKY/WX    TMP DP  RH WIND       PRES   REMARKS
MARIANNA       CLOUDY    78  74  87 NW3       29.99R
TALLAHASSEE    PTSUNNY   80  75  84 W3        29.99R
PERRY          PTSUNNY   78  76  93 CALM      30.00S
CROSS CITY       N/A     82  77  84 NW6       29.99R
LAKE CITY      FAIR      79  75  89 NW5       30.00R
GAINESVILLE    SUNNY     80  75  84 W9        30.00R
MAYPORT NAS    PTSUNNY   79  77  94 VRB5      29.98R
JACKSONVILLE   PTSUNNY   76  74  93 W6        29.98R
JAX NAS        PTSUNNY   81  74  79 W3        29.99R
JAX CRAIG      PTSUNNY   79  76  90 NW7       29.98R
JAX CECIL      SUNNY     81  77  89 VRB5      29.99R
FERNANDINA BEA FAIR      79  73  83 W8        29.97R

STATION/POSITION SKY/WX   TEMP    WIND        PRES    WAVE   SWELL
                          AIR SEA DIR/SP/G            HT/PER HT/PER
                          (F)     (DEG/KT/KT) (MB)    (FT/S) (FT/S)
SHELL POINT                78     310/  3/  6   N/A
KEATON BEACH               83     310/ 11/ 14 1015.8R
CEDAR KEY                  85     340/  3/  6 1015.9R
FERNANDINA                 75 84  270/  6/  8 1013.9R
30.7N   81.3W                 85                N/A     2/ 8
MAYPORT                    77 85  280/  5/  6 1014.9R
31.4N   80.9W              79 84  300/ 12/ 12 1013.8R   2/ 4   2/ 8
ST AUGUSTINE               80 82  240/  6/  8 1016.0R

$$
FLZ040-043>046-052-053-057-058-063-144-031400-
INTERIOR CENTRAL FLORIDA

CITY           SKY/WX    TMP DP  RH WIND       PRES   REMARKS
OCALA          MOSUNNY   79  75  89 CALM      30.01R
THE VILLAGES     N/A     81  79  94 CALM      29.91R
LEESBURG       SUNNY     80  76  87 CALM      30.01R
SANFORD        SUNNY     82  76  81 W6        30.00R
ORLANDO EXEC   SUNNY     82  78  88 W6        30.01R
ORLANDO INTL   PTSUNNY   83  76  79 W6        30.01R
KISSIMMEE      SUNNY     82  79  89 CALM      30.02R
WINTER HAVEN   PTSUNNY   83  77  82 NW5       30.03R
LAKELAND       MOSUNNY   79  75  89 CALM      30.02R
BARTOW         MOSUNNY   75 N/A N/A CALM      30.01R
OKEECHOBEE     MOSUNNY   79  73  83 SW5       30.01S

$$
FLZ041-047-054-059-064-141-147-031400-
EAST CENTRAL FLORIDA

CITY           SKY/WX    TMP DP  RH WIND       PRES   REMARKS
ORMOND BEACH   MOSUNNY  N/A N/A N/A W5        30.00R
DAYTONA BEACH  MOSUNNY   81  77  88 W6        30.00R
DELAND           N/A     81  75  83 CALM      30.01S
NEW SMYRNA BEA SUNNY     81  75  83 W6        30.01R
TITUSVILLE     MOSUNNY   81  79  94 NW6       30.01R
CAPE CANAVERAL SUNNY     84  79  85 NW6       29.99R HX  96
PATRICK AFB    SUNNY     83  78  84 NW8       30.00R
MELBOURNE      SUNNY     81  77  88 W7        30.00R
VERO BEACH     SUNNY     83  76  79 SW7       30.01R
FT PIERCE      SUNNY     83  77  82 SW7       30.00R
STUART         MOSUNNY   81  75  83 VRB3      30.02R

STATION/POSITION SKY/WX   TEMP    WIND        PRES    WAVE   SWELL
                          AIR SEA DIR/SP/G            HT/PER HT/PER
                          (F)     (DEG/KT/KT) (MB)    (FT/S) (FT/S)
28.5N   80.2W              82 84  280/ 10/ 12 1015.6R
28.9N   78.5W              84 86  240/ 12/ 14 1015.8R
TRIDENT PIER               81 87  290/  4/  6 1016.2R
28.4N   80.5W                 85                N/A     1/ 9
27.5N   80.2W                 84                N/A     1/ 9

$$
FLZ050-056-061-142-242-148-248-149-249-151-251-155-255-
160-260-031400-
WEST CENTRAL FLORIDA

CITY           SKY/WX    TMP DP  RH WIND       PRES   REMARKS
CRYSTAL RIVER  PTSUNNY   81  77  89 CALM      30.01R
INVERNESS      FAIR      79  79 100 SE3       30.01R
BROOKSVILLE    MOSUNNY   79  77  94 CALM      30.02R
CLEARWATER     MOSUNNY   84  77  79 CALM      30.01R
TAMPA INTL     PTSUNNY   85  77  77 CALM      30.01R HX  95
TAMPA EXEC     MOSUNNY   81  77  89 CALM      30.01S
PLANT CITY     MOSUNNY   82  79  89 CALM      30.04R
MACDILL AFB    MOSUNNY   84  84 100 S1        30.01R HX 103
PETER O KNIGHT PTSUNNY   86  81  84 MISG      30.01S HX 102
ST PETERSBURG  MOSUNNY   84  76  76 CALM      29.99R
SARASOTA       MOSUNNY   82  77  84 CALM      30.00R
VENICE         FAIR      82  77  83 NE5       30.01S

STATION/POSITION SKY/WX   TEMP    WIND        PRES    WAVE   SWELL
                          AIR SEA DIR/SP/G            HT/PER HT/PER
                          (F)     (DEG/KT/KT) (MB)    (FT/S) (FT/S)
CEDAR KEY                  85     340/  3/  6 1015.9R
28.5N   84.5W              85 85  320/  4/  6 1015.9R   1/ 7
27.3N   84.2W                 86                N/A     1/ 7
CLEARWATER BEACH           84 86  320/  6/  7 1015.8R
MIDDLE TAMPA BAY                  170/  1/  2 1016.2R
VENICE                     84 87   40/  2/  3 1015.6R

$$
FLZ066-069-070-075>078-162-262-165-265-031400-
SOUTHWEST FLORIDA AND KEYS

CITY           SKY/WX    TMP DP  RH WIND       PRES   REMARKS
PUNTA GORDA    MOSUNNY   83  77  82 N6        30.03R
FT MYERS       SUNNY     85  73  67 N6        30.00R
SOUTHWEST INTL SUNNY     84  76  76 CALM      30.01R
NAPLES         SUNNY     86  77  74 N3        30.00R HX  97
MARCO ISLAND   SUNNY     82  75  78 CALM      30.00R
MARATHON       SUNNY     86  77  74 CALM      30.00R HX  97
KEY WEST NAS   PTSUNNY   87  76  69 VRB5      29.99R HX  97
KEY WEST INTL  SUNNY     87  76  69 CALM      29.99R HX  97

STATION/POSITION SKY/WX   TEMP    WIND        PRES    WAVE   SWELL
                          AIR SEA DIR/SP/G            HT/PER HT/PER
                          (F)     (DEG/KT/KT) (MB)    (FT/S) (FT/S)
VENICE                     84 87   40/  2/  3 1015.6R
NAPLES                        85              1016.6R
26.0N   85.6W              85 86  130/  2/  4 1015.5R   1/ 7   2/ 7
DRY TORTUGAS                                    N/A
NW FL BAY                  87      CALM  /  3 1015.4
SAND KEY                   86     100/  2     1015.6R
LONG KEY                   86 87   CALM  /  1 1016.7R
MOLASSES REEF              85 87  330/  2/  2 1016.0R

$$
FLZ067-068-071>074-168-172>174-031400-
SOUTHEAST FLORIDA

CITY           SKY/WX    TMP DP  RH WIND       PRES   REMARKS
W PALM BEACH   PTSUNNY   83  77  82 W5        30.02R
FT LAUDER-EXEC MOSUNNY   83  77  82 W5        30.00R
FT LAUDERDALE  PTSUNNY   83  78  85 W6        30.00R
POMPANO BEACH  MOSUNNY   85  76  74 W5        30.00S
PEMBROKE PINES MOSUNNY   83  77  82 SW5       30.02R
OPA LOCKA      MOSUNNY   84  77  79 NW6       30.01R
MIAMI          PTSUNNY   85  78  80 W3        30.01R HX  96
WEST KENDALL   MOSUNNY   83  78  85 CALM      30.01R
HOMESTEAD      MOSUNNY   83  76  80 VRB3      30.00R

STATION/POSITION SKY/WX   TEMP    WIND        PRES    WAVE   SWELL
                          AIR SEA DIR/SP/G            HT/PER HT/PER
                          (F)     (DEG/KT/KT) (MB)    (FT/S) (FT/S)
PORT EVERGLADES            82     300/  5/  7 1015.6R
VIRGINIA KEY               83 87  320/  3/  5 1015.3R
LAKE WORTH                 81 87  260/  4/  5 1015.5R
SETTLEMENT POINT           85     200/  4/  5 1016.7R

$$



USA.gov is the U.S. government's official web portal to all federal, state and local government web resources and services.